Regional Weather Roundup
Issued by NWS Green Bay, WI

Home | Current Version | Previous Version | Graphics & Text | Print | Product List | Glossary Off
Versions: 1 2 3 4 5 6 7 8 9 10 11 12 13 14 15 16 17 18 19 20 21 22 23 24 25 26 27 28 29 30 31 32 33 34 35 36 37 38 39 40 41 42 43 44 45 46 47 48 49 50

000
ASUS43 KGRB 040000
RWRGRB

NORTH-CENTRAL AND NORTHEAST WISCONSIN REGIONAL WEATHER ROUNDUP
NATIONAL WEATHER SERVICE GREEN BAY WI
700 PM CDT TUE MAY 03 2016

WIZ005-009-010>012-018-019-040100-
NORTH CENTRAL WISCONSIN

CITY           SKY/WX    TMP DP  RH WIND       PRES   REMARKS
IRONWOOD         N/A     55  39  54 N5        29.67F
MANITOWISH WTR NOT AVBL
ARBOR VITAE    NOT AVBL
EAGLE RIVER    NOT AVBL
LAND O LAKES   NOT AVBL
RHINELANDER    CLOUDY    51  43  74 W5        29.68F
PHILLIPS       NOT AVBL
ANTIGO         NOT AVBL
TOMAHAWK       NOT AVBL
MERRILL        NOT AVBL
$$

WIZ013-073-040100-
NORTHEAST WISCONSIN

CITY           SKY/WX    TMP DP  RH WIND       PRES   REMARKS
IRON MOUNTAIN  CLEAR     53  42  66 W9        29.66R
MARINETTE      NOT AVBL
$$

WIZ017-030-035>037-045-040100-
CENTRAL WISCONSIN

CITY           SKY/WX    TMP DP  RH WIND       PRES   REMARKS
MEDFORD        NOT AVBL
WAUSAU         LGT RAIN  54  47  77 N9        29.69R
MOSINEE        CLOUDY    52  46  82 CALM      29.69R
MARSHFIELD     TSTM      56  44  64 N24G38    29.69R
WISC RAPIDS    CLOUDY    61  37  41 SW5       29.65F
STEVENS POINT  NOT AVBL
WAUPACA        NOT AVBL
SHAWANO        NOT AVBL
CLINTONVILLE   NOT AVBL
WAUTOMA        LGT RAIN  61  41  47 W15G26    29.68S
$$

WIZ038-039-048-051-040100-
FOX VALLEY

CITY           SKY/WX    TMP DP  RH WIND       PRES   REMARKS
NWS GREEN BAY  CLOUDY    58  42  55 NW25G35   29.70R
APPLETON       CLOUDY   N/A N/A N/A W10       29.67R
OSHKOSH        LGT RAIN  63  37  38 W12       29.68R
FOND DU LAC    CLOUDY    64  37  36 W15G24    29.68F
$$

WIZ022-050-052-040100-
EAST CENTRAL WISCONSIN

CITY           SKY/WX    TMP DP  RH WIND       PRES   REMARKS
EPHRAIM        NOT AVBL
STURGEON BAY   CLOUDY    52  45  76 N10       29.71F
MANITOWOC      NOT AVBL
SHEBOYGAN      CLOUDY    63  37  38 SW10      29.67F
$$

LMZ563-521-522-541>543-040100-
LAKESHORE

STATION/POSITION TIME  TEMP    WIND        PRES    VSBY  WAVE
                       AIR SEA DIR/SP/G                  HT/PER
                 (UTC) (F)     (DEG/KT/KT) (MB)    (MI)  (FT/S)
SHEBOYGAN LKSHOR 2300   66     230/ 19/ 22 1005.4F
KEWAUNEE LKSHORE 2300   65                 1003.8F
NORTHPORT PIER   2300   47      CALM  /  2 1006.1R
N MID LAKE BUOY  2250   44 39  350/  8/ 10 1005.7R         3/ 4
CHAMBERS ISLAND  2300   49     310/  3/  6 1006.1
MENOMINEE LKSHOR 2300   51                 1004.7R
$$




USA.gov is the U.S. government's official web portal to all federal, state and local government web resources and services.